Weather History for KPEX - May, 2013

Change the Weather History Date:

Wednesday, May 1, 2013

  Actual Average (KLJF) Record (KLJF)
Temperature  
Mean Temperature 40 °F -  
Max Temperature 45 °F 61 °F 96 °F (1959)
Min Temperature 33 °F 39 °F 24 °F (1961)
Degree Days  
Heating Degree Days 25    
Moisture  
Dew Point 25 °F    
Average Humidity 59    
Maximum Humidity 71    
Minimum Humidity 47    
Precipitation  
Precipitation 0.00 in - - ()
Sea Level Pressure  
Sea Level Pressure 30.31 in    
Wind  
Wind Speed 12 mph (NW)    
Max Wind Speed 17 mph    
Max Gust Speed 25 mph    
Visibility 10 miles    
Events      
Averages and records for this station are not official NWS values.
T = Trace of Precipitation, MM = Missing Value Source: NWS Daily Summary

Daily Weather History Graph

Daily Weather History Graph

Search for Another Location

Airport or City:

Trip Planner

Search our weather history database for the weather conditions in past years. The results will help you decide how hot, cold, wet, or windy it might be!

Date:

Astronomy

May. 01, 2013 Rise Set
Actual Time 6:06 AM CDT 8:25 PM CDT
Civil Twilight 5:34 AM CDT 8:58 PM CDT
Nautical Twilight 4:53 AM CDT 9:39 PM CDT
Astronomical Twilight 4:08 AM CDT 10:25 PM CDT
Moon 1:36 AM CDT (5/1) 11:46 AM CDT (5/1)
Length of Visible Light 15h 24m
Length of Day
14h 18m
Waning Gibbous, 59% of the Moon is Illuminated
May 1
Waning Gibbous
May 2
Last Quarter
May 9
New
May 17
First Quarter
May 24
Full

Hourly Weather History & Observations

Time (CDT) Temp. Windchill Dew Point Humidity Pressure Visibility Wind Dir Wind Speed Gust Speed Precip Events Conditions
12:13 AM 47.3 °F - 32.0 °F 55% 30.02 in 10.0 mi NW 13.8 mph 20.7 mph N/A   Overcast
12:33 AM 46.6 °F - 33.1 °F 59% 30.02 in 10.0 mi NW 11.5 mph - N/A   Overcast
12:53 AM 45.5 °F 39.6 °F 31.1 °F 57% 30.03 in 10.0 mi NW 12.7 mph 19.6 mph N/A   Overcast
1:13 AM 44.8 °F 39.0 °F 30.7 °F 58% 30.06 in 10.0 mi WNW 11.5 mph 17.3 mph N/A   Overcast
1:33 AM 43.7 °F 37.3 °F 29.3 °F 57% 30.08 in 10.0 mi WNW 12.7 mph 18.4 mph N/A   Overcast
1:53 AM 42.8 °F 37.0 °F 28.9 °F 58% 30.09 in 10.0 mi WNW 10.4 mph - N/A   Overcast
2:13 AM 41.9 °F 36.9 °F 28.4 °F 59% 30.08 in 10.0 mi WNW 8.1 mph - N/A   Overcast
2:33 AM 41.2 °F 35.0 °F 29.1 °F 62% 30.09 in 10.0 mi WNW 10.4 mph - N/A   Mostly Cloudy
2:53 AM 40.3 °F 32.6 °F 28.9 °F 64% 30.09 in 10.0 mi NW 13.8 mph 21.9 mph N/A   Mostly Cloudy
3:13 AM 39.6 °F 33.0 °F 29.7 °F 68% 30.09 in 10.0 mi NW 10.4 mph - N/A   Mostly Cloudy
3:33 AM 38.8 °F 30.8 °F 28.4 °F 66% 30.11 in 10.0 mi NW 13.8 mph - N/A   Mostly Cloudy
3:53 AM 38.1 °F 31.7 °F 27.7 °F 66% 30.09 in 10.0 mi NW 9.2 mph - N/A   Scattered Clouds
4:13 AM 37.8 °F 31.8 °F 28.6 °F 69% 30.10 in 10.0 mi NW 8.1 mph - N/A   Scattered Clouds
4:33 AM 37.6 °F 29.1 °F 28.9 °F 71% 30.12 in 10.0 mi NW 13.8 mph 18.4 mph N/A   Mostly Cloudy
4:53 AM 37.4 °F 31.4 °F 28.4 °F 70% 30.15 in 10.0 mi NW 8.1 mph - N/A   Overcast
5:13 AM 36.5 °F 27.8 °F 27.5 °F 70% 30.17 in 10.0 mi NNW 13.8 mph - N/A   Overcast
5:33 AM 36.5 °F 27.8 °F 27.7 °F 70% 30.16 in 10.0 mi NW 13.8 mph - N/A   Overcast
5:53 AM 36.0 °F 28.0 °F 27.3 °F 71% 30.18 in 10.0 mi NW 11.5 mph - N/A   Overcast
6:13 AM 35.2 °F 27.1 °F 25.7 °F 68% 30.21 in 10.0 mi NW 11.5 mph 18.4 mph N/A   Overcast
6:33 AM 35.1 °F 26.9 °F 25.7 °F 69% 30.24 in 10.0 mi NW 11.5 mph - N/A   Overcast
6:52 AM 34.7 °F 28.1 °F 24.3 °F 66% 30.24 in 10.0 mi WNW 8.1 mph - N/A   Overcast
7:13 AM 34.5 °F 27.3 °F 23.7 °F 65% 30.28 in 10.0 mi West 9.2 mph - N/A   Overcast
7:33 AM 34.3 °F 26.5 °F 23.7 °F 65% 30.29 in 10.0 mi NW 10.4 mph - N/A   Overcast
7:53 AM 33.8 °F 24.8 °F 20.8 °F 59% 30.28 in 10.0 mi WNW 12.7 mph 17.3 mph N/A   Overcast
8:13 AM 33.8 °F 26.4 °F 20.1 °F 57% 30.29 in 10.0 mi WNW 9.2 mph 16.1 mph N/A   Overcast
8:33 AM 33.8 °F 26.4 °F 21.2 °F 60% 30.30 in 10.0 mi WNW 9.2 mph - N/A   Overcast
8:53 AM 33.8 °F 25.8 °F 21.6 °F 61% 30.30 in 10.0 mi WNW 10.4 mph - N/A   Overcast
9:13 AM 33.4 °F 24.8 °F 22.1 °F 63% 30.30 in 10.0 mi West 11.5 mph - N/A   Overcast
9:33 AM 34.2 °F 26.2 °F 21.9 °F 61% 30.30 in 10.0 mi NW 10.4 mph - N/A   Overcast
9:53 AM 34.9 °F 27.1 °F 21.9 °F 59% 30.30 in 10.0 mi WNW 10.4 mph - N/A   Overcast
10:13 AM 34.7 °F 28.1 °F 21.9 °F 60% 30.31 in 10.0 mi WNW 8.1 mph - N/A   Overcast
10:33 AM 34.7 °F 25.5 °F 21.4 °F 58% 30.33 in 10.0 mi NNW 13.8 mph 18.4 mph N/A   Overcast
10:53 AM 34.9 °F 26.6 °F 21.4 °F 58% 30.35 in 10.0 mi WNW 11.5 mph 17.3 mph N/A   Overcast
11:13 AM 35.2 °F 25.8 °F 21.7 °F 58% 30.36 in 10.0 mi WNW 15.0 mph 18.4 mph N/A   Overcast
11:33 AM 36.3 °F 28.4 °F 22.5 °F 57% 30.35 in 10.0 mi NW 11.5 mph - N/A   Overcast
11:53 AM 37.4 °F 30.3 °F 22.8 °F 56% 30.35 in 10.0 mi NW 10.4 mph 17.3 mph N/A   Mostly Cloudy
12:13 PM 37.0 °F 29.3 °F 23.0 °F 57% 30.34 in 10.0 mi NW 11.5 mph 20.7 mph N/A   Mostly Cloudy
12:33 PM 38.5 °F 31.1 °F 23.7 °F 55% 30.36 in 10.0 mi NNW 11.5 mph 16.1 mph N/A   Overcast
12:53 PM 39.0 °F 31.8 °F 23.5 °F 54% 30.36 in 10.0 mi NNW 11.5 mph 18.4 mph N/A   Overcast
1:13 PM 39.4 °F 31.4 °F 23.0 °F 52% 30.36 in 10.0 mi NW 13.8 mph 21.9 mph N/A   Overcast
1:33 PM 40.1 °F 31.6 °F 24.4 °F 54% 30.36 in 10.0 mi NNW 16.1 mph 23.0 mph N/A   Mostly Cloudy
2:13 PM 39.4 °F 31.4 °F 24.1 °F 54% 30.38 in 5.0 mi NW 13.8 mph 21.9 mph N/A   Haze
2:33 PM 40.5 °F 31.8 °F 23.7 °F 51% 30.38 in 10.0 mi NNW 17.3 mph 21.9 mph N/A   Overcast
2:53 PM 41.4 °F 33.6 °F 23.5 °F 49% 30.38 in 10.0 mi NNW 15.0 mph 25.3 mph N/A   Mostly Cloudy
3:13 PM 41.7 °F 34.4 °F 23.9 °F 49% 30.38 in 10.0 mi NNW 13.8 mph 21.9 mph N/A   Mostly Cloudy
3:33 PM 42.3 °F 35.5 °F 25.0 °F 50% 30.39 in 7.0 mi NW 12.7 mph 19.6 mph N/A   Scattered Clouds
4:13 PM 41.5 °F 34.2 °F 23.9 °F 50% 30.40 in 10.0 mi NNW 13.8 mph 21.9 mph N/A   Scattered Clouds
4:33 PM 41.4 °F 33.3 °F 23.5 °F 49% 30.41 in 10.0 mi NNW 16.1 mph 21.9 mph N/A   Scattered Clouds
4:53 PM 41.7 °F 34.8 °F 23.5 °F 49% 30.42 in 10.0 mi NNW 12.7 mph 20.7 mph N/A   Mostly Cloudy
5:13 PM 41.7 °F 34.4 °F 23.7 °F 49% 30.42 in 10.0 mi North 13.8 mph 20.7 mph N/A   Scattered Clouds
5:33 PM 42.1 °F 34.9 °F 23.4 °F 48% 30.43 in 10.0 mi NNW 13.8 mph 21.9 mph N/A   Scattered Clouds
5:53 PM 42.3 °F 36.8 °F 23.5 °F 48% 30.43 in 10.0 mi North 9.2 mph 19.6 mph N/A   Mostly Cloudy
6:13 PM 43.0 °F 38.2 °F 24.3 °F 48% 30.44 in 10.0 mi North 8.1 mph - N/A   Mostly Cloudy
6:32 PM 43.2 °F 37.9 °F 23.9 °F 47% 30.45 in 10.0 mi North 9.2 mph 18.4 mph N/A   Mostly Cloudy
6:53 PM 42.8 °F 37.0 °F 24.1 °F 48% 30.45 in 10.0 mi NNW 10.4 mph 16.1 mph N/A   Scattered Clouds
7:13 PM 41.9 °F 35.4 °F 24.4 °F 50% 30.46 in 10.0 mi North 11.5 mph 17.3 mph N/A   Clear
7:33 PM 41.9 °F 35.0 °F 24.4 °F 50% 30.47 in 10.0 mi North 12.7 mph 16.1 mph N/A   Scattered Clouds
7:53 PM 41.4 °F 35.7 °F 25.0 °F 52% 30.47 in 10.0 mi NNW 9.2 mph 17.3 mph N/A   Mostly Cloudy
8:33 PM 39.7 °F 32.3 °F 25.7 °F 57% 30.49 in 10.0 mi NNW 12.7 mph - N/A   Clear
8:53 PM 39.2 °F 33.0 °F 26.1 °F 59% 30.49 in 10.0 mi NNW 9.2 mph 18.4 mph N/A   Clear
9:33 PM 38.7 °F 31.8 °F 25.7 °F 60% 30.50 in 10.0 mi NNW 10.4 mph - N/A   Clear
9:53 PM 38.5 °F 32.1 °F 26.2 °F 61% 30.50 in 10.0 mi NNW 9.2 mph - N/A   Clear
10:13 PM 38.3 °F 30.5 °F 26.6 °F 63% 30.50 in 10.0 mi NNW 12.7 mph - N/A   Clear
10:33 PM 37.4 °F 30.8 °F 27.1 °F 66% 30.51 in 10.0 mi NNW 9.2 mph - N/A   Scattered Clouds
10:53 PM 36.9 °F 28.7 °F 26.6 °F 66% 30.51 in 10.0 mi NNW 12.7 mph 18.4 mph N/A   Scattered Clouds
11:13 PM 36.5 °F 29.7 °F 26.6 °F 67% 30.51 in 10.0 mi NNW 9.2 mph - N/A   Scattered Clouds
11:33 PM 35.6 °F 27.1 °F 26.6 °F 70% 30.53 in 10.0 mi NNW 12.7 mph - N/A   Clear
11:53 PM 35.2 °F 26.6 °F 26.6 °F 71% 30.53 in 10.0 mi NNW 12.7 mph 17.3 mph N/A   Clear